Weather in Iska

Russia / Tyumen Oblast     57°34′21″N   65°47′26″E
temp.,
°C
wind,
m/s
gust,
m/s
humid.,
%
clouds,
%
prec.,
mm/h
press.,
hPa
HPBL,
m
17 april, sat
sat1723:00+1ene27582 0.0 1029195
02:00−1se22634 0.0 102823
05:00−1ssw22620 0.0 102830
08:00+3sw35500 0.0 1027356
11:00+7wsw463725 0.0 10251364
14:00+10w6934100 0.0 10222261
17:00+10wnw6936100 0.0 10192281
20:00+7wsw4105084 0.0 1018279
18 april, sun
sun1823:00+5w41263100 0.0 1016465
02:00+4w51270100 0.0 1013615
05:00+4wnw61373100 0.0 10121092
08:00−1n81266100 0.6 1017931
11:00−1n81148100 0.6 10221698
14:00+1n710305 0.0 10251999
17:00+1n692996 0.0 10272461
20:00−2nne59375 0.0 10301145
19 april, mon
mon1923:00−4nne47412 0.0 10331493
02:00−5nne36425 0.0 10341349
05:00−6n36475 0.0 10361275
08:00−5n454396 0.0 10371434
11:00−2n4532100 0.0 10371857
14:000n3528100 0.0 10362170
17:00+1n352874 0.0 10352175
20:00−2nnw22440 0.0 103610
20 april, tue
tue2023:00−3wsw11455 0.0 103611
02:00−3wsw37505 0.0 1035156
05:00−3wsw41253100 0.0 1034346
08:00+1w5114129 0.0 1032524
11:00+5w683411 0.0 10301150
14:00+8wnw68345 0.0 10281512
17:00+9wnw69385 0.0 10271650
20:00+6wnw410525 0.0 1026250
21 april, wed
wed2123:00+4wnw413635 0.0 1026323
02:00+3nw412725 0.0 1026309
05:00+2nnw310855 0.0 1028263
08:00+5n48755 0.0 1030703
11:00+7n465661 0.0 10311320
14:00+10nne46405 0.0 10321666
17:00+10nne45395 0.0 10331636
20:00+6ene25542 0.0 1035115